CAPE
0 0 0 0 0 0 0 0 0 0 0 160 171 77 230 864 520 214 120 149 1249 1564 280 490 583 464 375 388 824 970 1107 1143 1118 1215 1444 1582 1699 2066 2255 2233 2328 2357 2433 2466
0 0 0 0 0 0 0 9 0 0 55 359 621 771 1452 1357 562 31 1016 56 119 1490 566 376 524 462 385 426 646 1062 1152 1131 1286 1447 1493 1615 1861 2239 2326 2347 2341 2420 2636 2594
0 0 0 0 0 4 218 286 177 0 579 1000 1034 968 1100 1214 1161 749 491 654 137 1066 1981 872 316 303 387 433 461 1067 1173 1285 1338 1581 1590 1690 1897 2273 2401 2339 2388 2533 2591 2504
0 0 0 0 140 336 530 401 456 814 912 986 1160 1019 856 715 531 592 529 203 515 1000 1838 2282 1508 369 354 403 527 980 1178 1289 1366 1512 1663 1790 2043 2333 2419 2420 2322 2424 2659 2632
0 0 0 6 176 194 124 380 245 194 269 481 630 377 272 256 64 7 37 24 178 426 1429 1601 2147 1597 560 513 635 941 1028 1159 1383 1473 1586 1794 1985 2333 2504 2485 2269 2322 2707 2570
0 0 0 53 238 200 138 306 81 69 63 96 349 159 229 63 33 0 0 11 173 407 990 945 1424 2338 1425 852 740 793 873 986 1354 1496 1556 1684 1992 2227 2343 2349 2173 2630 2625 2506
0 0 0 138 359 282 168 137 37 54 254 91 0 98 50 4 2 0 1 2 7 236 627 384 665 1913 2292 2025 1321 1026 866 1122 1356 1582 1590 1719 1917 2224 2151 2276 2513 2718 2786 2481
0 0 0 208 332 414 218 60 25 105 179 214 155 38 22 0 0 2 1 4 1 44 86 60 167 842 1560 1780 1136 1643 1963 1515 1523 1682 1798 1985 2030 2273 2367 2484 2586 2742 2891 2568
24 110 67 58 148 113 64 2 1 78 113 316 140 4 0 0 0 2 4 2 2 1 2 4 14 162 926 946 999 1452 2570 2505 2215 2110 2063 2197 2319 2490 2695 2782 2779 2844 2758 2687
18 0 0 0 0 6 11 22 42 90 173 245 129 59 1 0 0 0 2 1 3 1 1 0 2 6 36 285 832 1495 2139 2788 2739 2837 2726 2804 2909 2970 2985 2932 2922 2819 2778 2637
1 0 0 0 0 0 0 4 0 27 103 174 120 65 4 0 0 0 0 2 2 2 3 2 2 2 4 41 395 1621 1894 2642 2708 2899 2936 3308 3458 3011 3410 3325 3114 3108 2947 2481
1 0 0 0 0 0 0 0 0 0 27 12 18 37 6 0 0 0 0 0 0 0 3 3 3 3 3 3 66 1084 1695 2303 2983 2860 2793 3065 2782 2467 974 1650 2299 3033 3017 2401
0 0 0 0 0 0 0 0 0 5 12 0 0 0 0 0 0 0 0 0 0 0 0 3 0 1 3 2 86 700 977 1303 2202 3061 2900 2726 2503 2512 2706 1569 1296 1731 2740 2695
0 0 0 1 0 0 0 0 1 6 6 3 0 0 0 0 0 0 0 0 0 0 0 0 0 0 3 2 1 157 292 607 1643 1983 2182 2932 2561 2386 2363 2545 2763 2401 996 1575
0 0 1 3 0 0 0 0 5 0 0 0 0 0 0 0 0 0 0 0 0 0 0 0 0 0 0 0 0 2 21 240 851 1113 1364 1624 1288 1205 1284 1036 1120 1132 1028 595
0 2 0 0 1 0 0 2 0 0 0 0 0 0 0 0 0 0 0 0 0 0 0 0 0 0 0 0 0 0 1 6 100 523 627 486 380 110 172 207 2 195 615 868
2 2 1 2 0 0 0 1 0 0 0 0 0 0 0 0 0 0 0 0 0 0 0 0 0 0 0 0 3 0 0 0 1 6 163 83 4 0 0 0 0 25 156 5
0 0 0 0 0 1 2 2 2 0 0 0 0 0 0 0 0 0 0 0 0 0 0 0 0 0 0 0 0 3 1 1 0 3 0 0 0 0 0 0 2 3 7 4
0 1 0 2 1 18 11 2 1 0 0 0 0 0 0 0 0 0 0 0 0 0 0 0 0 0 0 0 0 0 3 2 3 3 2 0 0 0 0 0 0 2 2 1
0 2 0 0 1 1 0 0 0 0 0 0 0 0 0 0 0 0 0 0 0 0 0 0 0 0 0 0 0 0 0 2 3 2 4 4 4 4 0 0 2 3 1 3
0 0 1 4 5 0 0 0 0 0 0 0 0 0 0 0 0 0 0 0 0 0 0 0 0 0 0 0 0 0 0 0 0 1 2 2 4 4 5 6 7 6 7 7
0 0 3 7 4 2 0 0 0 0 0 0 0 0 0 0 0 0 0 0 0 0 0 0 0 0 0 0 0 0 0 0 0 0 0 0 0 2 3 5 5 6 5 6
0 0 0 4 18 9 3 0 0 0 0 0 0 0 1 0 0 0 0 0 0 0 0 0 0 0 0 0 0 0 0 0 0 0 0 0 0 0 0 0 0 0 0 0
0 0 0 0 3 38 27 8 1 0 0 0 0 0 0 0 0 0 0 0 0 0 0 0 0 0 0 0 0 0 0 0 0 0 0 0 0 0 0 0 0 0 0 0
0 0 0 2 1 0 0 8 1 2 2 3 0 0 0 0 0 0 0 0 0 0 0 0 0 0 0 0 0 0 0 0 0 0 0 0 0 0 0 0 0 0 0 0
0 0 0 0 0 0 0 0 0 0 0 0 0 0 0 0 0 0 0 0 0 0 0 0 0 0 0 0 0 0 0 0 0 0 0 0 0 0 0 0 0 0 0 0
0 0 0 0 0 0 0 0 0 0 0 0 0 0 0 0 0 0 0 0 0 0 0 0 0 0 0 0 0 0 0 0 0 0 0 0 0 0 0 0 0 0 0 0
CIN
-0 -0 -0 -0 -0 -0 -0 -0 -0 -0 -0 -97 -180 -180 -175 -125 -118 -100 -217 -270 -179 -196 -249 -256 -249 -248 -242 -221 -221 -202 -169 -161 -134 -129 -120 -119 -119 -99 -74 -82 -81 -86 -76 -63
-0 -0 -0 -0 -0 -0 -1 -109 -0 -0 -73 -130 -157 -141 -124 -173 -191 -252 -170 -325 -250 -156 -240 -248 -237 -234 -261 -256 -243 -245 -191 -153 -147 -132 -116 -106 -96 -76 -68 -75 -86 -86 -76 -70
-0 -0 -0 -0 -54 -41 -109 -196 -143 -0 -57 -112 -89 -98 -123 -148 -164 -214 -245 -144 -282 -105 -156 -255 -264 -260 -263 -267 -291 -246 -218 -190 -154 -138 -105 -101 -88 -65 -61 -78 -83 -82 -86 -100
-0 -0 -0 -0 -125 -103 -89 -204 -280 -161 -114 -91 -123 -185 -241 -278 -266 -245 -254 -314 -216 -134 -189 -206 -264 -292 -270 -275 -266 -228 -221 -197 -183 -150 -116 -107 -83 -65 -68 -75 -99 -107 -81 -92
-0 -0 -0 -117 -175 -148 -135 -146 -296 -264 -241 -168 -140 -203 -347 -440 -482 -520 -469 -420 -384 -368 -278 -319 -263 -322 -319 -305 -284 -236 -218 -210 -195 -184 -153 -122 -105 -82 -79 -85 -113 -130 -94 -117
-0 -0 -0 -147 -174 -167 -166 -80 -298 -302 -300 -249 -140 -158 -225 -430 -542 -0 -0 -593 -538 -466 -335 -421 -357 -251 -216 -255 -254 -214 -200 -197 -210 -204 -171 -148 -127 -105 -102 -112 -127 -93 -107 -132
-0 -0 -0 -157 -146 -101 -32 -105 -248 -239 -109 -140 -0 -79 -267 -284 -494 -0 -0 -0 -699 -554 -463 -629 -575 -277 -120 -164 -179 -205 -215 -215 -192 -189 -158 -157 -149 -121 -113 -108 -90 -79 -85 -138
-0 -0 -0 -114 -117 -68 -66 -140 -172 -132 -78 -96 -75 -159 -361 -0 -0 -0 -0 -439 -0 -629 -643 -767 -776 -484 -238 -179 -409 -305 -179 -164 -190 -175 -169 -160 -142 -125 -120 -103 -77 -73 -81 -128
-45 -3 -12 -85 -112 -141 -228 -35 -48 -122 -103 -48 -76 -93 -103 -0 -0 -0 -0 -0 -0 -0 -0 -0 -860 -744 -394 -397 -420 -323 -127 -91 -123 -147 -148 -158 -145 -130 -100 -86 -66 -60 -101 -116
-40 -5 -0 -0 -0 -180 -273 -261 -99 -109 -87 -106 -125 -123 -7 -0 -0 -0 -0 -0 -0 -0 -0 -0 -0 -0 -807 -684 -462 -263 -138 -58 -50 -62 -76 -83 -80 -91 -90 -75 -64 -69 -92 -116
-0 -0 -0 -0 -0 -0 -0 -170 -18 -78 -68 -68 -136 -192 -299 -0 -0 -0 -0 -0 -0 -0 -0 -0 -0 -0 -0 -793 -603 -173 -150 -66 -32 -29 -32 -26 -27 -79 -45 -54 -52 -60 -70 -129
-0 -0 -0 -0 -0 -0 -0 -0 -0 -11 -118 -90 -118 -221 -309 -0 -0 -0 -0 -0 -0 -0 -0 -0 -0 -0 -0 -0 -750 -426 -135 -69 -11 -12 -20 -16 -45 -102 -405 -253 -120 -41 -39 -112
-0 -0 -0 -0 -0 -0 -0 -0 -9 -46 -76 -0 -0 -3 -11 -11 -0 -0 -0 -0 -0 -0 -0 -0 -0 -0 -0 -0 -778 -490 -299 -157 -54 -16 -11 -29 -35 -48 -46 -253 -316 -214 -76 -55
-0 -0 -0 -1 -0 -0 -0 -0 -6 -15 -29 -46 -0 -0 -0 -0 -0 -0 -0 -0 -0 -0 -0 -0 -0 -0 -0 -0 -0 -552 -406 -253 -76 -51 -48 -16 -35 -47 -56 -42 -33 -80 -356 -229
-0 -0 -14 -3 -0 -0 -0 -0 -38 -0 -0 -18 -21 -0 -0 -0 -0 -0 -0 -0 -0 -0 -0 -0 -0 -0 -0 -0 -0 -263 -454 -349 -187 -163 -124 -90 -129 -136 -112 -149 -123 -145 -242 -415
-0 -26 -5 -5 -19 -0 -0 -14 -0 -0 -0 -0 -0 -0 -0 -0 -0 -0 -0 -0 -0 -0 -0 -0 -0 -0 -0 -0 -0 -0 -0 -111 -412 -235 -264 -307 -354 -435 -336 -189 -0 -201 -173 -228
-0 -9 -11 -29 -0 -0 -0 -1 -0 -0 -0 -4 -0 -0 -0 -0 -0 -0 -0 -0 -0 -0 -0 -0 -0 -0 -0 -0 -0 -0 -0 -0 -0 -447 -345 -387 -534 -0 -0 -0 -0 -81 -261 -0
-0 -0 -0 -0 -0 -6 -0 -20 -17 -0 -0 -0 -0 -0 -0 -0 -0 -0 -0 -0 -0 -0 -0 -0 -0 -0 -0 -0 -0 -0 -0 -0 -0 -0 -0 -0 -0 -0 -0 -0 -26 -0 -257 -0
-2 -1 -0 -1 -9 -6 -17 -16 -0 -0 -0 -0 -0 -0 -0 -0 -0 -0 -0 -0 -0 -0 -0 -0 -0 -0 -0 -0 -0 -0 -0 -0 -0 -0 -0 -0 -0 -0 -0 -0 -0 -0 -0 -0
-0 -3 -4 -0 -0 -0 -0 -0 -0 -0 -0 -0 -0 -0 -0 -0 -0 -0 -0 -0 -0 -0 -0 -0 -0 -0 -0 -0 -0 -0 -0 -0 -0 -0 -0 -0 -0 -0 -0 -0 -0 -0 -0 -0
-0 -0 -0 -1 -1 -0 -0 -0 -0 -0 -0 -0 -0 -0 -0 -0 -0 -0 -0 -0 -0 -0 -0 -0 -0 -0 -0 -0 -0 -0 -0 -0 -0 -0 -0 -0 -0 -0 -0 -0 -0 -0 -0 -0
-0 -0 -19 -7 -4 -5 -0 -0 -0 -0 -0 -0 -0 -0 -0 -0 -0 -0 -0 -0 -0 -0 -0 -0 -0 -0 -0 -0 -0 -0 -0 -0 -0 -0 -0 -0 -0 -0 -0 -0 -0 -0 -0 -0
-0 -0 -5 -31 -27 -13 -11 -0 -1 -2 -0 -0 -0 -0 -1 -0 -0 -0 -0 -0 -0 -0 -0 -0 -0 -0 -0 -0 -0 -0 -0 -0 -0 -0 -0 -0 -0 -0 -0 -0 -0 -0 -0 -0
-3 -4 -24 -3 -40 -19 -13 -14 -25 -1 -0 -0 -0 -0 -0 -0 -0 -0 -0 -0 -0 -0 -0 -0 -0 -0 -0 -0 -0 -0 -0 -0 -0 -0 -0 -0 -0 -0 -0 -0 -0 -0 -0 -0
-0 -0 -0 -13 -8 -0 -0 -19 -34 -11 -4 -1 -0 -0 -0 -0 -0 -0 -0 -0 -0 -0 -0 -0 -0 -0 -0 -0 -0 -0 -0 -0 -0 -0 -0 -0 -0 -0 -0 -0 -0 -0 -0 -0
-0 -0 -0 -0 -0 -19 -7 -0 -0 -0 -8 -0 -0 -0 -0 -0 -0 -0 -0 -0 -0 -0 -0 -0 -0 -0 -0 -0 -0 -0 -0 -0 -0 -0 -0 -0 -0 -0 -0 -0 -0 -0 -0 -0
-0 -0 -0 -0 -0 -0 -0 -0 -0 -0 -0 -0 -0 -0 -0 -0 -0 -0 -0 -0 -0 -0 -0 -0 -0 -0 -0 -0 -0 -0 -0 -0 -0 -0 -0 -0 -0 -0 -0 -0 -0 -0 -0 -0
Wind_Speed
29 29 27 29 30 28 29 32 36 31 27 23 21 19 14 11 4 7 17 21 15 29 45 19 20 17 23 18 19 18 13 10 16 15 16 16 18 18 19 23 23 22 19 17
32 29 28 31 29 26 24 26 31 27 23 17 13 9 9 11 9 9 11 18 29 28 38 45 20 21 25 24 18 17 15 14 9 9 14 15 16 16 18 24 24 22 20 17
33 28 28 32 23 20 18 18 25 28 20 14 10 10 10 8 9 10 13 14 18 34 28 31 42 14 25 29 17 16 17 8 8 8 14 14 14 14 18 23 24 23 23 20
31 27 37 21 14 11 10 13 14 14 13 14 13 8 7 9 11 13 16 19 20 22 19 21 27 18 12 15 18 15 7 8 7 7 12 11 13 14 18 21 24 23 23 21
31 31 33 23 19 19 19 15 13 18 17 15 18 13 13 14 16 16 17 17 17 19 18 17 16 26 12 11 10 10 12 11 8 7 6 7 11 13 14 20 26 24 18 15
29 32 35 26 23 24 17 21 18 18 18 19 17 21 17 17 17 19 19 18 18 17 16 15 15 15 9 10 10 13 12 13 9 7 7 7 7 8 9 10 19 7 5 12
36 33 31 27 25 22 26 24 18 15 13 12 17 20 19 16 17 18 18 18 18 17 16 18 18 16 11 13 14 22 10 10 9 9 8 7 6 6 7 10 7 6 8 3
33 33 35 25 21 20 19 17 17 12 11 10 12 11 15 16 17 17 18 18 18 17 18 18 18 18 16 16 21 24 17 10 11 11 10 10 9 9 8 8 9 8 11 9
26 24 18 14 11 11 15 16 16 15 13 8 10 12 16 16 18 18 18 18 18 17 18 18 17 17 20 20 22 22 21 13 13 14 13 12 10 11 11 10 10 11 13 9
22 19 17 13 13 13 15 18 18 16 13 12 13 13 12 14 15 17 18 19 18 18 19 20 19 19 20 22 20 20 21 19 13 14 15 16 16 15 12 12 14 14 17 15
21 20 20 16 15 16 16 16 17 18 16 14 16 17 18 18 19 19 19 20 20 21 22 22 23 22 22 23 21 19 23 27 20 18 18 18 19 21 20 20 22 22 27 19
24 21 24 27 23 23 19 20 20 19 17 17 16 16 17 19 20 21 22 23 23 23 23 24 24 24 25 25 23 21 25 29 27 26 24 25 21 22 22 22 25 28 27 19
27 28 29 31 29 22 23 23 23 20 17 16 17 16 17 18 21 22 23 23 24 24 24 25 24 25 27 28 26 23 27 30 30 31 31 27 27 16 11 23 21 26 25 22
28 30 29 25 25 23 23 24 22 19 17 17 18 17 17 18 21 22 23 25 26 25 26 25 25 26 27 25 24 23 28 29 26 28 29 27 25 25 22 18 21 25 24 25
20 25 31 29 24 25 23 22 21 22 22 20 18 16 15 17 18 20 21 23 24 24 25 26 25 26 26 25 22 22 25 25 22 22 20 20 19 25 28 28 26 24 24 23
26 24 22 23 23 25 25 24 22 22 22 24 19 15 15 16 18 19 20 21 22 23 24 24 25 28 29 27 22 22 23 24 24 19 15 14 15 17 16 22 20 25 30 26
16 15 19 22 23 25 26 25 22 20 20 18 16 15 14 15 17 18 19 20 21 21 22 22 24 25 25 24 23 25 23 19 20 20 17 13 16 20 24 27 26 33 31 27
13 14 16 19 22 24 24 23 20 18 19 19 13 12 13 14 16 16 17 18 18 19 20 21 22 22 22 21 20 21 21 23 23 21 20 17 15 15 21 23 27 28 21 22
13 14 15 18 20 17 17 19 18 13 14 15 12 12 11 12 13 15 16 17 18 19 20 20 20 20 20 20 19 18 17 16 18 19 20 20 21 14 17 16 18 9 14 18
22 15 14 13 12 10 8 12 12 11 10 10 10 9 9 11 13 15 15 15 18 20 20 19 18 19 19 19 18 16 16 15 14 15 16 16 16 14 10 10 10 10 13 13
21 17 18 14 11 10 6 6 8 9 11 11 8 8 10 11 12 13 13 14 18 19 18 19 19 19 18 17 17 16 15 15 14 14 13 14 14 15 13 9 7 8 8 11
18 18 19 14 11 12 7 7 7 8 8 9 12 13 11 11 11 12 13 15 17 18 18 19 18 18 17 17 17 16 15 14 14 14 14 13 12 12 12 11 10 11 11 13
15 15 16 18 16 11 8 6 5 10 11 9 9 8 13 12 12 12 13 16 17 18 18 20 19 17 18 17 16 15 15 14 14 14 13 13 13 12 11 10 11 11 13 14
16 16 12 17 18 13 7 9 9 12 7 8 9 10 9 10 11 13 14 15 16 16 18 20 21 16 18 17 16 15 14 15 15 15 14 13 12 12 12 13 12 14 15 15
15 15 15 14 13 12 12 10 10 13 11 7 7 10 12 12 12 13 14 14 15 16 17 19 21 19 17 18 17 15 15 15 15 15 15 13 12 13 13 14 15 15 16 17
14 14 13 13 14 12 11 10 8 8 9 8 9 11 11 12 12 12 12 14 15 16 17 18 18 19 19 18 18 17 15 16 16 15 15 14 14 14 15 15 16 16 16 18
15 13 13 15 13 13 13 12 13 14 13 11 10 11 11 12 12 13 14 15 16 18 17 18 18 18 19 20 19 18 16 15 16 16 16 16 15 15 16 17 17 18 18 19
Wind_Direction
257 255 262 262 258 262 256 252 239 245 257 253 254 255 270 278 259 289 267 252 262 253 210 181 171 166 165 156 158 161 166 177 174 175 174 173 174 172 170 179 185 193 195 195
255 255 262 259 259 265 270 256 244 245 257 249 251 247 272 287 300 283 313 271 254 271 235 217 178 169 165 165 156 156 159 167 177 175 170 172 171 169 168 179 185 187 189 186
252 256 253 250 267 271 269 269 251 241 246 226 227 234 258 283 302 299 302 309 251 248 241 238 224 202 171 172 159 157 160 168 172 177 167 170 170 168 169 175 181 186 191 186
250 251 235 247 277 283 276 282 272 240 237 235 221 228 269 300 307 315 310 302 287 261 238 248 242 179 197 174 163 163 178 172 178 170 164 166 165 169 171 172 179 180 184 181
246 243 242 246 269 268 262 261 279 248 240 241 246 253 269 294 306 312 316 321 303 281 262 265 264 244 200 189 184 180 175 174 180 187 175 170 166 168 171 172 181 179 165 150
246 240 236 246 266 265 265 245 271 264 251 254 259 243 261 282 303 308 309 317 301 296 289 282 286 266 227 233 221 184 187 182 187 198 205 184 179 176 179 180 172 166 278 143
240 240 243 263 270 264 241 243 267 269 258 263 248 262 257 280 294 308 298 293 296 305 304 293 286 280 273 269 267 261 239 242 223 206 207 221 220 231 193 182 203 222 267 290
238 239 241 281 259 248 244 259 261 273 267 265 265 285 275 262 283 285 284 286 292 297 303 301 292 283 278 276 276 270 268 245 243 240 243 251 236 244 233 218 195 224 261 274
240 237 257 277 267 279 259 260 264 275 278 284 286 282 262 274 284 281 289 289 296 292 293 297 300 290 276 278 279 276 270 263 260 259 255 254 246 249 247 234 228 236 253 260
235 243 254 275 273 280 276 272 274 281 281 284 281 282 285 278 307 302 287 286 292 294 282 286 296 297 288 280 285 283 278 270 268 264 263 262 263 260 253 242 239 241 253 258
242 251 252 264 275 276 279 286 280 278 278 285 286 289 293 300 305 298 292 290 290 293 291 299 293 294 299 285 290 287 281 273 271 270 266 265 264 265 263 262 255 250 249 256
246 261 257 255 270 274 279 278 282 283 279 281 290 299 298 300 303 298 299 297 295 298 301 296 297 297 291 295 295 293 287 274 269 267 266 263 265 267 271 267 260 251 248 252
263 265 264 262 266 274 276 279 282 285 291 284 288 294 314 313 315 306 297 299 299 300 304 305 307 300 298 297 303 295 284 275 270 263 262 264 263 269 244 267 265 254 247 250
279 264 262 262 263 276 282 279 278 282 292 295 295 299 311 320 317 314 308 301 298 301 302 308 309 308 303 304 300 294 285 280 276 272 268 266 267 270 269 257 257 253 250 248
295 274 260 263 268 272 281 282 277 276 284 286 291 306 301 311 316 311 316 308 299 303 305 305 305 307 306 304 304 299 290 285 284 282 284 282 284 280 273 268 260 254 247 245
277 276 268 262 267 270 272 274 276 281 284 277 283 294 304 310 318 320 311 310 309 305 304 303 305 303 305 303 298 293 290 288 285 286 285 297 295 311 315 294 293 258 251 244
301 293 275 264 269 268 266 269 272 277 283 282 284 285 301 314 315 316 317 316 313 307 308 307 304 308 306 298 285 279 290 300 299 291 293 301 305 310 307 301 301 277 255 245
331 307 293 279 271 267 264 266 272 277 274 276 289 286 294 307 310 315 317 317 315 312 310 309 309 310 312 310 302 297 294 290 291 301 306 317 328 337 320 304 320 235 237 247
343 324 310 294 277 275 269 261 267 278 276 277 273 285 296 303 309 316 321 319 314 315 312 311 314 318 317 319 319 318 311 309 306 312 311 307 307 327 6 326 309 267 245 248
20 353 337 314 297 297 286 273 262 249 273 284 296 288 298 299 306 316 321 320 317 311 315 318 321 324 323 325 328 328 330 328 329 332 339 340 344 343 5 56 300 289 259 261
29 5 20 8 331 328 313 298 260 250 259 268 279 313 306 302 314 319 324 322 322 328 325 326 326 327 330 332 337 340 338 340 341 340 352 359 9 21 29 19 342 358 338 309
56 30 36 19 354 3 316 287 282 256 261 279 271 287 303 307 316 326 328 333 328 333 335 333 331 338 339 341 340 339 342 348 348 349 347 352 359 9 10 11 18 12 351 328
86 72 60 71 58 17 295 289 290 240 249 275 279 294 284 291 313 321 324 326 332 337 339 339 342 345 346 347 350 351 351 348 349 352 349 351 357 3 6 2 354 343 335 334
48 53 41 247 179 259 334 279 270 249 285 311 301 290 295 304 312 320 328 329 336 337 340 342 343 338 344 345 348 352 353 354 351 352 352 350 351 351 354 351 350 346 342 338
11 360 359 1 354 317 286 309 290 258 288 298 334 315 311 314 321 325 332 332 332 332 329 335 342 342 338 345 352 357 354 352 353 352 350 350 354 354 352 346 340 335 333 332
359 7 352 349 358 358 346 334 315 321 360 351 318 317 329 340 334 320 328 331 329 327 326 329 337 345 345 338 344 347 353 360 358 357 357 355 355 350 347 345 342 336 333 333
338 341 340 334 333 348 349 331 310 303 309 309 312 310 321 323 320 322 325 329 328 327 321 329 332 333 339 339 340 338 340 345 350 352 352 351 353 355 351 345 341 336 334 331